GW0710 Weather Reports


time (UTC)temp
C
wind
direction
speed
KPH
gust
KPH
rain 1hr
cm
rain 24hr
cm
rain mn
cm
humidity
%
barometer
mb
20260504200056 26 99 11.3 22.5 0.00 0.08 0.08 43 1002.1
20260504194603 26 111 4.8 22.5 0.00 0.08 0.08 45 1002.2
20260504193056 26 342 3.2 14.5 0.00 0.08 0.08 46 1002.3
20260504191624 26 295 6.4 20.9 0.00 0.08 0.08 45 1002.2
20260504184606 26 237 1.6 14.5 0.00 0.08 0.08 47 1002.3
20260504183056 25 82 9.7 22.5 0.00 0.08 0.08 49 1002.5
20260504181559 25 238 1.6 14.5 0.00 0.08 0.08 47 1002.5
20260504180056 25 253 3.2 12.9 0.00 0.08 0.08 47 1002.4
20260504174559 24 209 3.2 11.3 0.00 0.08 0.08 52 1002.7
20260504173052 23 351 8.0 22.5 0.00 0.08 0.08 49 1003.0
20260504171552 24 300 3.2 16.1 0.00 0.08 0.08 51 1003.1
20260504140106 20 355 1.6 11.3 0.00 0.08 0.08 60 1004.2
20260504081557 13 130 1.6 11.3 0.00 0.00 0.00 81 1005.4
20260504060104 13 0 0.0 1.6 0.00 0.00 0.00 79 1007.8
20260504044555 14 0 0.0 3.2 0.00 0.00 0.00 79 1008.2
20260504043057 15 0 0.0 3.2 0.00 0.00 0.00 75 1008.5
20260504041600 15 0 0.0 1.6 0.00 0.00 0.00 77 1008.6
20260504040059 15 0 0.0 0.0 0.00 0.00 0.00 75 1008.2
20260504034604 15 163 1.6 3.2 0.00 0.00 0.00 73 1008.6
20260504033058 15 275 1.6 4.8 0.00 0.00 0.00 70 1008.7
20260504031605 15 300 3.2 4.8 0.00 0.00 0.00 74 1009.1
20260504030112 15 0 0.0 1.6 0.00 0.00 0.00 76 1008.7
20260504024554 15 0 0.0 3.2 0.00 0.00 0.00 72 1008.9
20260504023054 15 0 0.0 0.0 0.00 0.00 0.00 71 1008.7
20260504021607 16 0 0.0 0.0 0.00 0.00 0.00 67 1008.7
20260504020059 16 0 0.0 1.6 0.00 0.00 0.00 63 1008.5
20260504014629 17 263 0.0 6.4 0.00 0.00 0.00 64 1008.5
20260504014557 17 263 0.0 6.4 0.00 0.00 0.00 64 1008.5
20260504013056 17 0 0.0 1.6 0.00 0.00 0.00 60 1008.4
20260504011558 18 0 0.0 0.0 0.00 0.00 0.00 58 1008.5
20260504010059 19 0 0.0 3.2 0.00 0.00 0.00 52 1008.4
20260504004559 20 0 0.0 4.8 0.00 0.00 0.00 50 1008.6
20260504003057 21 0 0.0 0.0 0.00 0.00 0.00 47 1008.5
20260504001557 21 0 0.0 4.8 0.00 0.00 0.00 47 1008.6
20260504000136 22 290 1.6 8.0 0.00 0.00 0.00 47 1008.9
20260503234603 22 310 4.8 11.3 0.00 0.00 0.00 45 1008.9
20260503233101 22 290 4.8 12.9 0.00 0.00 0.00 46 1008.9
20260503231557 22 283 6.4 16.1 0.00 0.00 0.00 45 1008.6
20260503230104 22 291 9.7 17.7 0.00 0.00 0.00 46 1009.0
20260503224559 22 296 6.4 20.9 0.00 0.00 0.00 44 1009.1
20260503223056 22 283 6.4 19.3 0.00 0.00 0.00 43 1009.1
20260503221601 22 317 16.1 27.4 0.00 0.00 0.00 45 1009.1
20260503220059 22 291 11.3 17.7 0.00 0.00 0.00 47 1009.2
20260503214601 22 278 8.0 17.7 0.00 0.00 0.00 46 1009.2
20260503213108 22 294 9.7 25.7 0.00 0.00 0.00 45 1008.9
20260503211554 22 286 11.3 19.3 0.00 0.00 0.00 44 1009.2
20260503210057 22 290 12.9 25.7 0.00 0.00 0.00 45 1009.6
20260503204602 22 287 12.9 22.5 0.00 0.00 0.00 44 1009.7
20260503203057 22 325 14.5 27.4 0.00 0.00 0.00 45 1009.8
20260503201600 22 299 8.0 24.1 0.00 0.00 0.00 47 1009.5